Location: Agumbayan Subdivision
(14.6074°N, 121.0838°E)
Time: 03:07:22
(UTC+00:00)

Daily predictions for brighter satellites

Satellite Brightness Start Highest point End
(mag) Time Altitude Azimuth Time Altitude Azimuth Time Altitude Azimuth
Milstar 3 4.1 09:39:42 10° WNW 09:46:11 28° N 09:51:54 10° NE
Cosmos 1992 Rocket 4.0 09:42:30 10° S 09:47:40 68° ESE 09:52:49 10° NNE
S3M 4.4 09:42:27 10° SSE 09:48:00 38° E 09:53:33 10° NNE
NOSS 3-3 (C) 4.5 09:43:16 10° SW 09:48:41 56° WNW 09:54:22 10° NNE
Cosmos 2058 Rocket 3.4 09:45:15 10° S 09:49:40 75° W 09:54:08 10° N
Longmarch 3A Rocket 2.7 09:48:51 10° NNW 09:50:37 21° NE 09:54:16 10° E
Cosmos 1850 Rocket 4.5 09:46:58 10° NNW 09:52:15 70° WSW 09:57:33 10° S
Orbus 7S 3.0 09:53:07 10° WSW 09:57:55 85° NNW 10:00:28 11° ENE
Cosmos 1417 Rocket 4.5 09:52:33 10° S 09:58:40 67° E 10:04:51 10° N
Cosmos 1340 3.7 09:57:26 10° NNE 10:00:32 24° E 10:03:37 10° SE
Cosmos 1953 Rocket 3.5 09:57:47 10° N 10:02:12 71° E 10:06:40 10° S
Aureole 3 Rocket 3.8 09:59:56 10° SSW 10:02:56 44° W 10:06:34 10° N
Cosmos 2219 4.4 09:59:34 10° NNE 10:03:41 20° ENE 10:07:47 10° ESE
H-2A R/B 3.9 10:04:32 10° ENE 10:04:32 10° ENE 10:05:02 10° ENE
CZ-4B R/B 4.2 10:00:09 10° S 10:05:38 53° WSW 10:11:05 10° NNW
H-2A R/B 3.0 10:03:43 10° NNW 10:06:00 28° NE 10:11:35 12° E
GPS 2-14 Rocket1 2.9 10:02:42 10° WNW 10:06:50 64° NNE 10:10:19 14° E
Cosmos 2369 3.9 10:03:03 10° SSW 10:08:46 79° WNW 10:14:28 10° NNE
Fermi 3.8 10:05:13 10° WSW 10:09:18 77° NNW 10:12:34 15° ENE
Cosmos 1455 2.2 10:07:38 10° S 10:11:18 56° E 10:14:59 10° NNE
Delta 7925 Rocket 3.8 10:06:27 10° WSW 10:13:23 86° SSE 10:17:45 16° ENE
Cosmos 1553 Rocket 4.4 10:10:36 10° S 10:16:57 70° W 10:23:16 10° N
Geosat 4.4 10:14:38 10° NNE 10:19:35 64° WNW 10:24:33 10° SSW
Meteor 2-15 Rocket 4.4 10:13:36 10° S 10:19:43 72° E 10:25:50 10° N
Timation 2 Rocket 4.3 10:13:34 10° N 10:20:08 51° ENE 10:26:46 10° SE
SL-16 R/B 3.8 10:19:46 10° SE 10:22:10 14° ESE 10:22:10 14° ESE
FALCON 9 R/B 1.5 10:22:35 10° SSW 10:24:33 28° SE 10:25:02 26° ESE
GPS 2-12 Rocket1 3.0 10:20:44 10° WNW 10:25:08 76° SSW 10:28:08 20° ESE
CZ-2C R/B 3.8 10:24:43 20° E 10:25:35 21° E 10:29:27 10° SSE
USA 281 3.5 10:19:38 10° SSE 10:26:09 71° WSW 10:32:40 10° NNW
YAOGAN 1 3.4 10:22:39 10° SE 10:26:20 28° ENE 10:30:00 10° NNE
Cosmos-2242 4.0 10:23:15 10° SSE 10:26:41 24° E 10:26:57 24° E
Okean O Rocket 4.2 10:24:02 10° SSW 10:27:35 24° W 10:31:08 10° NW
IRS-1C Rocket 4.0 10:23:26 10° SSE 10:28:40 74° ENE 10:33:54 10° N
ASC 2 Rocket 4.2 10:26:08 10° NW 10:30:01 32° NNE 10:32:13 23° ENE
Cosmos 1939 Rocket 2.8 10:26:32 10° S 10:30:35 86° W 10:34:32 10° NNW
Cosmos 1812 Rocket 3.5 10:28:25 10° S 10:32:51 84° E 10:37:16 10° N
Orbus 7S 3.7 10:31:06 10° W 10:33:30 38° NNW 10:34:47 26° NE
CRYOSAT 2 4.4 10:28:47 10° NNE 10:33:33 57° E 10:38:19 10° S
Cosmos 1697 Rocket 4.4 10:30:00 10° SW 10:34:57 33° WNW 10:39:55 10° N
Cosmos 2227 Rocket 2.8 10:31:39 10° N 10:36:36 31° ENE 10:38:27 25° ESE
Atlas Centaur 2 4.4 10:31:30 10° WNW 10:38:19 27° N 10:43:27 16° NE
CZ-3B R/B 4.4 10:32:49 10° W 10:40:40 37° NNW 10:42:52 24° NNE
CZ-4 R/B 4.4 10:36:49 10° SSE 10:40:57 89° WSW 10:45:06 10° NNW
IRS-P2 Rocket 4.5 10:35:53 10° SSE 10:41:00 63° ENE 10:46:09 10° N
CZ-2C R/B 3.1 10:38:19 10° S 10:41:11 17° SE 10:41:13 17° SE
Helios 1A Rocket 2.8 10:37:16 10° SSE 10:41:23 73° ENE 10:45:29 10° N
MOS 1 Rocket 3.9 10:45:38 10° N 10:50:33 64° WNW 10:55:46 10° SSW
Ariane H10+ 3.7 10:43:52 10° WSW 10:51:59 35° SSW 10:53:19 26° SSE
Cosmos 968 Rocket 3.6 10:48:26 10° N 10:53:24 47° ENE 10:53:48 46° E
CZ-4 R/B 1.3 10:52:08 10° S 10:56:07 84° W 11:00:00 10° NNW
Cosmos 1980 Rocket 3.3 10:52:34 10° SW 10:57:54 43° WNW 11:03:13 10° N
Cosmos 1745 Rocket 3.9 10:55:15 10° N 11:01:35 87° E 11:07:57 10° S
Okean-O 2.9 10:58:00 10° S 11:02:23 67° WSW 11:06:47 10° NNW
CSL-04 Debris 4.2 10:58:01 10° SSE 11:03:16 55° ENE 11:08:33 10° N
Cosmos 1892 3.8 11:01:03 10° NNW 11:04:44 44° W 11:08:25 10° SSW
SEDSat Delta rocket 4.4 11:01:44 10° WSW 11:08:18 53° NNW 11:10:21 39° NNE
CZ-2C R/B 3.4 11:08:31 10° S 11:14:19 75° WSW 11:20:06 10° NNW
Cosmos 2297 Rocket 2.2 11:10:38 10° NNW 11:16:16 76° WSW 11:21:54 10° S
Cosmos 2058 3.7 11:13:01 10° NNW 11:16:58 48° W 11:20:56 10° SSW
Cosmos 1486 Rocket 3.9 11:11:51 10° NNW 11:17:10 84° WSW 11:19:39 32° S
Hubble Space Telescope 2.4 11:16:18 10° W 11:19:52 28° SSW 11:19:54 28° SSW
SWIFT 4.0 11:25:41 10° W 11:28:31 31° SW 11:28:31 31° SW
Cosmos 2322 Rocket 3.5 11:24:33 10° S 11:27:12 28° S 11:27:12 28° S
H-2A R/B 3.5 11:37:37 10° S 11:45:09 31° NW 11:48:02 10° NNW
